Location: Newark
(14.9306°N, 3.4333°E)
Time: 21:57:52
(UTC+00:00)

First-Move - Pass Details

Date: 12 December 2019
Orbit: 576 x 669 km, 97.6° (Epoch: 20 January)

Event Time Altitude Azimuth Distance (km) Brightness Sun altitude
Rises 05:28:06 0° 19° (NNE) 2,798 ? -8.4°
Reaches altitude 10° 05:30:20 10° 25° (NNE) 1,891 ? -7.9°
Maximum altitude 05:34:16 48° 100° (E) 759 ? -7.0°
Drops below altitude 10° 05:38:11 10° 175° (S) 1,878 ? -6.1°
Sets 05:40:23 0° 181° (S) 2,778 ? -5.6°
